Location: Burtsch�tz
(51.0528°N, 12.1764°E)
Time: 06:12:11
(UTC+00:00)

CZ-4C R/B - Pass Details

Date: 29 October 2020
Orbit: 624 x 1378 km, 63.4° (Epoch: 01 December)

Event Time Altitude Azimuth Distance (km) Brightness Sun altitude
Rises 18:39:34 0° 314° (NW) 3,685 6.4 -27.0°
Reaches altitude 10° 18:41:59 10° 317° (NW) 2,838 5.6 -27.4°
Maximum altitude 18:48:50 68° 40° (NE) 1,265 2.8 -28.4°
Enters shadow 18:49:39 63° 75° (ENE) 1,317 2.8 -28.6°
